KE7YUP Weather Reports


time (UTC)temp
F
wind
direction
speed
knots
gust
knots
rain 1hr
in
rain 24hr
in
rain mn
in
humidity
%
barometer
mb
20260507135837 49 80 1.7 2.6 0.00 0.00 0.00 63 1023.0
20260507134817 49 70 0.9 1.7 0.00 0.00 0.00 64 1022.9
20260507133817 48 85 2.6 3.5 0.00 0.00 0.00 67 1023.0
20260507132817 48 82 1.7 2.6 0.00 0.00 0.00 68 1022.8
20260507131817 46 0.0 0.0 0.00 0.00 0.00 68 1022.4
20260507130817 46 72 0.0 0.9 0.00 0.00 0.00 66 1022.4
20260507125817 46 73 1.7 2.6 0.00 0.00 0.00 65 1022.4
20260507124837 45 71 2.6 4.3 0.00 0.00 0.00 63 1022.0
20260507123817 45 50 2.6 3.5 0.00 0.00 0.00 58 1021.8
20260507122816 46 50 2.6 3.5 0.00 0.00 0.00 60 1022.0
20260507121837 46 49 2.6 3.5 0.00 0.00 0.00 59 1022.0
20260507120816 45 11 0.9 1.7 0.00 0.00 0.00 55 1021.6
20260507115817 46 11 1.7 2.6 0.00 0.00 0.00 54 1021.9
20260507114817 46 11 1.7 2.6 0.00 0.00 0.00 56 1022.0
20260507113816 45 11 1.7 2.6 0.00 0.00 0.00 59 1021.8
20260507112817 45 11 2.6 3.5 0.00 0.00 0.00 62 1021.8
20260507111816 46 11 3.5 4.3 0.00 0.00 0.00 61 1022.0
20260507110836 46 11 2.6 2.6 0.00 0.00 0.00 62 1022.1
20260507105816 46 11 3.5 4.3 0.00 0.00 0.00 61 1021.8
20260507104816 45 11 3.5 4.3 0.00 0.00 0.00 63 1022.0
20260507103836 45 11 4.3 4.3 0.00 0.00 0.00 65 1022.1
20260507102816 45 11 1.7 2.6 0.00 0.00 0.00 65 1021.9
20260507101857 45 11 0.9 1.7 0.00 0.00 0.00 66 1021.9
20260507100816 45 11 0.9 1.7 0.00 0.00 0.00 65 1022.1
20260507095816 46 11 1.7 2.6 0.00 0.00 0.00 67 1022.1
20260507094816 45 356 2.6 3.5 0.00 0.00 0.00 67 1022.2
20260507093816 45 329 1.7 2.6 0.00 0.00 0.00 65 1022.4
20260507092816 47 329 3.5 4.3 0.00 0.00 0.00 61 1022.9
20260507091837 48 111 0.9 1.7 0.00 0.00 0.00 60 1022.9
20260507090816 47 53 1.7 3.5 0.00 0.02 0.00 61 1022.9
20260507085816 47 350 0.9 1.7 0.00 0.06 0.00 60 1022.6
20260507084816 47 350 0.9 1.7 0.00 0.08 0.00 59 1022.8
20260507083816 47 350 0.9 2.6 0.00 0.08 0.00 57 1022.7
20260507082836 47 350 3.5 4.3 0.00 0.08 0.00 52 1022.6
20260507081816 47 350 3.5 4.3 0.00 0.08 0.00 53 1022.8
20260507080816 47 350 3.5 4.3 0.00 0.08 0.00 50 1022.7
20260507075836 46 350 4.3 5.2 0.00 0.08 0.00 51 1022.4
20260507074816 46 350 1.7 2.6 0.00 0.08 0.00 48 1022.4
20260507073816 46 350 2.6 3.5 0.00 0.08 0.00 48 1022.5
20260507072816 47 350 2.6 2.6 0.00 0.08 0.00 46 1022.6
20260507071836 47 350 1.7 1.7 0.00 0.08 0.00 47 1022.6
20260507070816 47 350 0.9 2.6 0.00 0.08 0.00 47 1022.6
20260507065816 47 350 0.9 1.7 0.00 0.08 0.00 46 1022.2
20260507064816 48 350 1.7 2.6 0.00 0.08 0.00 44 1022.4
20260507063816 49 350 0.9 1.7 0.00 0.08 0.00 42 1022.3
20260507062816 48 350 2.6 4.3 0.00 0.08 0.00 42 1022.4
20260507061816 49 331 2.6 4.3 0.00 0.08 0.00 41 1022.6
20260507060816 50 331 2.6 3.5 0.00 0.08 0.00 39 1022.6
20260507055815 51 300 1.7 2.6 0.00 0.08 0.08 38 1022.6
20260507054815 51 300 1.7 2.6 0.00 0.08 0.08 37 1022.5
20260507053815 51 300 2.6 3.5 0.00 0.08 0.08 37 1022.6
20260507052815 49 302 3.5 4.3 0.00 0.08 0.08 40 1022.1
20260507051815 48 325 4.3 5.2 0.00 0.08 0.08 41 1021.8
20260507050817 47 338 1.7 3.5 0.00 0.08 0.08 45 1021.9
20260507045817 47 269 5.2 7.0 0.00 0.08 0.08 47 1021.6
20260507044817 50 224 2.6 4.3 0.00 0.08 0.08 41 1022.3
20260507043815 53 330 3.5 5.2 0.00 0.08 0.08 33 1022.3
20260507042817 53 320 3.5 4.3 0.00 0.08 0.08 33 1022.2
20260507041817 54 321 4.3 5.2 0.00 0.08 0.08 32 1022.5
20260507040817 55 310 5.2 7.0 0.00 0.08 0.08 30 1022.6
20260507035817 54 316 4.3 7.0 0.00 0.08 0.08 32 1022.5
20260507034817 53 314 7.8 9.6 0.00 0.08 0.08 35 1022.4
20260507033817 53 314 8.7 10.4 0.00 0.08 0.08 34 1022.4
20260507032817 53 304 6.1 8.7 0.00 0.08 0.08 34 1022.1
20260507031837 53 290 0.0 0.9 0.00 0.08 0.08 33 1022.0
20260507030817 54 355 0.9 2.6 0.00 0.08 0.08 33 1022.4
20260507025816 55 0 4.3 5.2 0.00 0.08 0.08 30 1022.4
20260507024817 55 8 4.3 6.1 0.00 0.08 0.08 30 1022.3
20260507023817 54 15 2.6 3.5 0.00 0.08 0.08 31 1021.9
20260507022816 54 337 3.5 4.3 0.00 0.08 0.08 34 1021.9
20260507021837 56 327 2.6 3.5 0.00 0.08 0.08 32 1022.2
20260507020816 57 47 0.0 0.9 0.00 0.08 0.08 29 1022.6
20260507015817 58 47 0.9 2.6 0.00 0.08 0.08 27 1022.2
20260507014816 58 38 3.5 5.2 0.00 0.08 0.08 27 1022.2
20260507013816 59 63 3.5 4.3 0.00 0.08 0.08 26 1022.6
20260507012837 60 23 2.6 8.7 0.00 0.08 0.08 24 1022.6
20260507011816 60 39 5.2 8.7 0.00 0.08 0.08 25 1022.6
20260507010817 60 26 4.3 9.6 0.00 0.08 0.08 24 1022.6
20260507005836 60 7 7.0 10.4 0.00 0.08 0.08 24 1022.2
20260507004817 60 354 7.0 11.3 0.00 0.08 0.08 25 1022.2
20260507003816 60 360 9.6 13.0 0.00 0.08 0.08 24 1022.2
20260507002816 60 16 9.6 15.6 0.00 0.08 0.08 24 1022.1
20260507001816 60 11 7.8 13.0 0.00 0.08 0.08 24 1022.2
20260507000816 61 346 5.2 10.4 0.00 0.08 0.08 24 1022.2
20260506235816 61 323 10.4 13.9 0.00 0.08 0.08 24 1022.1
20260506234816 60 335 6.1 11.3 0.00 0.08 0.08 25 1022.0
20260506233816 60 42 13.9 19.1 0.00 0.08 0.08 25 1022.0
20260506232816 60 35 5.2 13.9 0.00 0.08 0.08 24 1021.5
20260506231816 60 356 9.6 14.8 0.00 0.08 0.08 26 1021.7
20260506230816 60 21 8.7 13.0 0.00 0.08 0.08 26 1021.7
20260506225816 59 45 11.3 13.9 0.00 0.08 0.08 27 1021.6
20260506224836 59 358 10.4 14.8 0.00 0.08 0.08 27 1021.7
20260506223816 59 355 11.3 17.4 0.00 0.08 0.08 27 1021.8
20260506222816 59 11 7.8 11.3 0.00 0.08 0.08 27 1021.6
20260506221816 58 330 7.0 13.0 0.00 0.08 0.08 27 1021.7
20260506220816 58 319 7.8 17.4 0.00 0.08 0.08 27 1021.7
20260506215816 58 325 11.3 17.4 0.00 0.08 0.08 28 1022.4
20260506214836 58 300 13.0 23.5 0.00 0.08 0.08 28 1022.0
20260506213816 57 345 6.1 15.6 0.00 0.08 0.08 29 1022.1
20260506212816 57 320 12.2 16.5 0.00 0.08 0.08 29 1022.0
20260506211816 57 319 14.8 20.9 0.00 0.08 0.08 28 1022.0
20260506210816 57 327 14.8 25.2 0.00 0.08 0.08 28 1022.2
20260506205816 56 350 11.3 21.7 0.00 0.08 0.08 28 1022.4
20260506204816 56 345 8.7 16.5 0.00 0.08 0.08 28 1022.4
20260506203816 57 318 11.3 20.9 0.00 0.08 0.08 29 1022.5
20260506202816 56 308 10.4 15.6 0.00 0.08 0.08 29 1023.0
20260506201816 56 4 9.6 13.9 0.00 0.08 0.08 27 1022.9
20260506200816 56 47 8.7 15.6 0.00 0.08 0.08 30 1022.8
20260506195816 55 3 12.2 22.6 0.00 0.08 0.08 28 1022.5
20260506194816 55 350 12.2 22.6 0.00 0.08 0.08 27 1022.5
20260506193816 55 294 11.3 17.4 0.00 0.08 0.08 29 1022.4
20260506192816 54 2 13.0 22.6 0.00 0.08 0.08 28 1022.4
20260506191816 54 351 9.6 16.5 0.00 0.08 0.08 27 1022.4
20260506190815 53 25 8.7 12.2 0.00 0.08 0.08 27 1021.9
20260506185816 54 15 13.0 22.6 0.00 0.08 0.08 25 1022.7
20260506184816 53 18 4.3 14.8 0.00 0.08 0.08 26 1022.4
20260506183815 52 13 6.1 20.0 0.00 0.08 0.08 25 1022.2
20260506182816 52 347 8.7 18.2 0.00 0.08 0.08 24 1022.1
20260506181816 52 8 13.9 22.6 0.00 0.08 0.08 24 1022.2
20260506180816 52 4 8.7 21.7 0.00 0.08 0.08 25 1022.0
20260506175836 52 7 15.6 23.5 0.00 0.08 0.08 25 1021.9
20260506174815 52 351 7.8 17.4 0.00 0.08 0.08 29 1021.7
20260506173816 52 37 11.3 25.2 0.00 0.08 0.08 28 1021.3
20260506172836 52 2 9.6 23.5 0.00 0.08 0.08 27 1020.9
20260506171815 51 357 10.4 23.5 0.00 0.08 0.08 27 1020.7
20260506170815 51 353 13.0 26.9 0.00 0.08 0.08 26 1020.4
20260506165836 51 12 11.3 20.9 0.00 0.08 0.08 26 1020.4
20260506164816 51 17 10.4 18.2 0.00 0.08 0.08 28 1020.1
20260506163815 51 7 14.8 24.3 0.00 0.08 0.08 28 1020.0
20260506162816 51 359 9.6 22.6 0.00 0.08 0.08 26 1020.0
20260506161815 50 27 9.6 24.3 0.00 0.08 0.08 33 1019.9
20260506160836 50 27 8.7 19.1 0.00 0.08 0.08 34 1020.0
20260506155815 50 1 6.1 18.2 0.00 0.08 0.08 34 1020.0
20260506154815 50 329 11.3 21.7 0.00 0.08 0.08 33 1019.8
20260506153815 50 355 12.2 18.2 0.00 0.08 0.08 36 1019.8
20260506152815 50 9 3.5 13.0 0.00 0.08 0.08 37 1020.0
20260506151815 50 5 7.0 10.4 0.00 0.08 0.08 45 1020.0
20260506150815 50 38 6.1 14.8 0.00 0.08 0.08 43 1019.9
20260506145815 50 6 6.1 13.0 0.00 0.08 0.08 41 1020.1
20260506144815 50 334 7.8 12.2 0.00 0.08 0.08 42 1019.6
20260506143815 49 22 7.8 13.9 0.00 0.08 0.08 42 1019.6
20260506142815 49 322 2.6 4.3 0.00 0.08 0.08 44 1020.0
20260506141815 49 7 6.1 15.6 0.00 0.08 0.08 44 1019.8
20260506140815 49 15 4.3 7.8 0.00 0.08 0.08 46 1019.8